Content
SEND FEEDBACK

Daily
Averages
Monthly
Summary
United States of America

VINTON, LOUISIANA


Home > North America > United States > Louisiana
Elevation: 20 feet     Latitude: 30 12N     Longitude: 093 35W

WEATHER
 
SELECT A DAY
Number of Records: 194,845;   Date Range: 11/22/06 - 10/21/14
 
SHARE

PRINT THIS DATA

[ ← Previous Day ]
WEATHER ALMANAC - APRIL 5, 2013
[ Next Day → ]
[ °C ]   °F
Weather ElementAverageHighLow
Temperature57.5 °F71.6 °F (3:15 pm)44.6 °F (4:55 am)
Dewpoint46.9 °F53.6 °F (7:35 pm)42.8 °F (4:55 am)
Humidity71.6 %100 % (7:35 am)38 % (4:55 pm)
Barometer30.16 in30.23 in (9:55 am)30.10 in (4:55 pm)
Wind Speed5.6 mph11.5 mph (9:35 am)
Wind Gust16.1 mph (10:55 am)
Weather ElementAverage
Visibility9.7 mi
Wind DirectionSW (224.2 °)

Weather ElementTotal
Precipitation---
Heating Degree Days6.9 (Base 65)
Growing Degree Days8.1 (Base 50)
Averaged from 71 records on April 5, 2013
WEATHER CONDITIONS BREAKOUT
WIND DIRECTION BREAKOUT
WEATHER BY HOUR - APRIL 5, 2013
[ °C ]   °F
Local TimeTemperatureDewpointHumidityBarometerVisibilityWind DirectionWind SpeedGust SpeedPrecipitationEventsConditions
12:35 AM48.2 °F44.6 °F87 %30.16 in10.0 miNW (320°)10.4 mphOvercast
12:55 AM48.2 °F44.6 °F87 %30.16 in10.0 miNW (310°)10.4 mphOvercast
1:15 AM48.2 °F44.6 °F87 %30.16 in10.0 miNW (310°)10.4 mphOvercast
1:35 AM48.2 °F44.6 °F87 %30.16 in10.0 miNW (310°)9.2 mphOvercast
1:55 AM48.2 °F44.6 °F87 %30.16 in10.0 miNW (320°)6.9 mphOvercast
2:15 AM48.2 °F44.6 °F87 %30.16 in10.0 miNNW (330°)6.9 mphOvercast
2:35 AM48.2 °F44.6 °F87 %30.16 in10.0 miNW (320°)9.2 mphOvercast
2:55 AM48.2 °F44.6 °F87 %30.16 in10.0 miNW (320°)8.1 mphMostly Cloudy
3:15 AM48.2 °F44.6 °F87 %30.16 in10.0 miNW (320°)6.9 mphOvercast
3:35 AM48.2 °F44.6 °F87 %30.15 in10.0 miNNW (330°)6.9 mphOvercast
3:55 AM46.4 °F44.6 °F93 %30.15 in10.0 miNNW (330°)6.9 mphScattered Clouds
4:15 AM46.4 °F44.6 °F93 %30.15 in10.0 miNW (320°)5.8 mphMostly Cloudy
4:35 AM46.4 °F44.6 °F93 %30.16 in10.0 miNNW (330°)5.8 mphScattered Clouds
4:55 AM44.6 °F42.8 °F93 %30.15 in10.0 miNW (320°)4.6 mphClear
5:15 AM44.6 °F42.8 °F93 %30.16 in10.0 miWNW (290°)4.6 mphClear
5:35 AM44.6 °F42.8 °F93 %30.16 in10.0 miWNW (300°)5.8 mphClear
5:55 AM44.6 °F42.8 °F93 %30.17 in10.0 miWNW (290°)4.6 mphClear
6:15 AM44.6 °F42.8 °F93 %30.18 in10.0 miWNW (290°)4.6 mphClear
6:35 AM44.6 °F42.8 °F93 %30.19 in10.0 miNW (310°)4.6 mphClear
6:55 AM44.6 °F42.8 °F93 %30.20 in10.0 miNW (310°)4.6 mphClear
7:15 AM44.6 °F42.8 °F93 %30.21 in10.0 miNW (320°)6.9 mphClear
7:35 AM44.6 °F44.6 °F100 %30.21 in10.0 miNW (320°)6.9 mphClear
7:55 AM46.4 °F44.6 °F93 %30.20 in10.0 miNorth (350°)8.1 mphClear
8:15 AM48.2 °F44.6 °F87 %30.21 in10.0 miNNW (340°)9.2 mphClear
8:35 AM50.0 °F46.4 °F87 %30.21 in10.0 miNNW (340°)9.2 mphClear
8:55 AM50.0 °F44.6 °F82 %30.21 in10.0 miNNW (340°)8.1 mphClear
9:15 AM51.8 °F44.6 °F76 %30.22 in10.0 miNorth (350°)8.1 mphClear
9:35 AM55.4 °F44.6 °F67 %30.22 in10.0 miNorth (350°)11.5 mphClear
9:55 AM55.4 °F44.6 °F67 %30.23 in10.0 miNNW (330°)11.5 mphClear
10:15 AM59.0 °F44.6 °F59 %30.22 in10.0 miNorth (360°)8.1 mphClear
10:35 AM60.8 °F44.6 °F55 %30.22 in10.0 miNorth (350°)8.1 mphClear
10:55 AM60.8 °F44.6 °F55 %30.22 in10.0 miNorth (350°)10.4 mph16.1 mphClear
11:15 AM62.6 °F46.4 °F55 %30.22 in10.0 miNorth (360°)8.1 mphClear
11:35 AM62.6 °F44.6 °F52 %30.22 in10.0 miNorth (10°)9.2 mphClear
11:55 AM62.6 °F46.4 °F55 %30.21 in10.0 miNE (50°)6.9 mphClear
12:15 PM64.4 °F46.4 °F52 %30.20 in10.0 miNorth (350°)6.9 mphClear
12:35 PM64.4 °F46.4 °F52 %30.20 in10.0 miNorth (10°)5.8 mphClear
12:55 PM66.2 °F48.2 °F52 %30.19 in10.0 miNorth (360°)6.9 mphClear
1:15 PM68.0 °F48.2 °F49 %30.19 in10.0 miNorth (350°)8.1 mphClear
1:35 PM68.0 °F46.4 °F46 %30.18 in10.0 miNNW (340°)9.2 mph16.1 mphClear
1:55 PM68.0 °F46.4 °F46 %30.17 in10.0 miNNE (20°)5.8 mphClear
2:15 PM69.8 °F46.4 °F43 %30.16 in10.0 miNNE (30°)5.8 mphClear
2:35 PM69.8 °F46.4 °F43 %30.16 in10.0 miNorth (360°)6.9 mphClear
2:55 PM69.8 °F46.4 °F43 %30.14 in10.0 miNE (50°)5.8 mphClear
3:15 PM71.6 °F46.4 °F41 %30.13 in5.0 miNorth (10°)3.5 mphHaze
3:35 PM71.6 °F46.4 °F41 %30.13 in10.0 miNW (320°)4.6 mphClear
3:55 PM71.6 °F46.4 °F41 %30.12 in10.0 miWNW (300°)5.8 mphClear
4:15 PM71.6 °F46.4 °F41 %30.11 in10.0 miNNW (330°)5.8 mphClear
4:35 PM71.6 °F46.4 °F41 %30.11 in10.0 miNorth (350°)3.5 mphClear
4:55 PM71.6 °F44.6 °F38 %30.10 in10.0 miCalmClear
5:15 PM71.6 °F46.4 °F41 %30.10 in10.0 miNW (310°)5.8 mphClear
5:35 PM71.6 °F44.6 °F38 %30.10 in10.0 miWNW (290°)3.5 mphClear
5:55 PM71.6 °F46.4 °F41 %30.10 in10.0 miCalmClear
6:15 PM71.6 °F46.4 °F41 %30.10 in10.0 miCalmClear
6:35 PM71.6 °F48.2 °F43 %30.10 in10.0 miSSE (160°)3.5 mphClear
6:55 PM69.8 °F50.0 °F49 %30.10 in10.0 miSouth (190°)4.6 mphClear
7:15 PM66.2 °F51.8 °F60 %30.11 in10.0 miSouth (190°)4.6 mphClear
7:35 PM64.4 °F53.6 °F68 %30.11 in10.0 miSSW (200°)9.2 mphClear
7:55 PM62.6 °F53.6 °F72 %30.11 in10.0 miSSW (200°)4.6 mphClear
8:15 PM60.8 °F53.6 °F77 %30.11 in10.0 miSW (220°)5.8 mphClear
8:35 PM59.0 °F53.6 °F82 %30.12 in10.0 miCalmClear
8:55 PM59.0 °F53.6 °F82 %30.13 in10.0 miCalmClear
9:15 PM59.0 °F53.6 °F82 %30.13 in10.0 miSouth (180°)3.5 mphClear
9:35 PM59.0 °F53.6 °F82 %30.14 in10.0 miCalmClear
9:55 PM55.4 °F53.6 °F94 %30.13 in10.0 miCalmClear
10:15 PM55.4 °F53.6 °F94 %30.14 in10.0 miCalmClear
10:35 PM55.4 °F53.6 °F94 %30.14 in10.0 miCalmClear
10:55 PM53.6 °F53.6 °F100 %30.13 in10.0 miCalmClear
11:15 PM53.6 °F53.6 °F100 %30.14 in7.0 miCalmClear
11:35 PM53.6 °F51.8 °F94 %30.14 in3.0 miCalmClear
11:55 PM53.6 °F53.6 °F100 %30.14 in5.0 miCalmClear
Hourly data recorded from KUXL, located miles away from Vinton, Louisiana







STORIES FROM OUR PARTNERS